CDT,Max TemperatureF,Mean TemperatureF,Min TemperatureF,Max Dew PointF,MeanDew PointF,Min DewpointF,Max Humidity, Mean Humidity, Min Humidity, Max Sea Level PressureIn, Mean Sea Level PressureIn, Min Sea Level PressureIn, Max VisibilityMiles, Mean VisibilityMiles, Min VisibilityMiles, Max Wind SpeedMPH, Mean Wind SpeedMPH, Max Gust SpeedMPH,PrecipitationIn, CloudCover, Events, WindDirDegrees
2013-8-1,82,66,54,59,53,49,83,58,39,30.02,29.96,29.85,10,10,10,9,4,,0.00,1,,261
2013-8-2,78,68,60,57,51,46,78,56,36,30.03,29.93,29.84,10,10,10,14,6,,0.00,1,,334
2013-8-3,79,65,52,53,49,45,89,59,32,30.19,30.12,30.05,10,10,10,9,2,,0.00,1,,349
2013-8-4,75,62,50,54,51,47,90,63,38,30.23,30.15,30.00,10,10,10,12,3,,0.00,1,,154
2013-8-5,81,71,62,64,61,55,93,78,54,30.02,29.89,29.77,10,8,2,21,6,30,0.55,6,Rain-Thunderstorm,215
2013-8-6,84,70,57,66,60,54,93,74,51,29.83,29.75,29.68,10,9,2,25,6,36,0.17,2,Rain-Thunderstorm,219
2013-8-7,75,68,59,59,54,46,94,70,36,30.02,29.91,29.78,10,10,10,13,6,17,0.01,3,,330
2013-8-8,75,64,55,59,55,52,90,70,48,30.04,30.01,29.97,10,10,9,14,3,21,0.00,4,Rain,243
2013-8-9,75,67,59,59,53,48,90,62,38,30.11,30.04,29.99,10,10,10,17,6,22,0.00,3,,300
2013-8-10,77,65,55,56,52,48,87,61,40,30.18,30.14,30.08,10,10,10,9,2,,0.00,3,,298
2013-8-11,81,70,62,63,59,55,84,70,48,30.08,30.04,29.98,10,10,10,6,2,,0.00,5,Rain,105
2013-8-12,81,70,60,64,55,50,87,60,34,30.06,30.01,29.99,10,10,9,15,6,24,0.00,2,,329
2013-8-13,78,64,51,55,48,40,100,65,29,30.19,30.14,30.08,10,8,0,10,3,17,0.00,1,Fog,10
2013-8-14,77,64,52,53,49,47,93,61,34,30.19,30.15,30.09,10,10,10,13,2,20,0.00,2,,264
2013-8-15,79,66,53,58,53,49,90,63,40,30.12,30.09,30.06,10,10,8,12,3,,0.00,3,,236
2013-8-16,81,70,60,57,54,50,83,58,36,30.18,30.15,30.11,10,10,9,12,3,18,0.00,2,,238
2013-8-17,82,68,55,56,53,51,93,59,35,30.19,30.14,30.09,10,10,4,14,5,22,0.00,1,,182
2013-8-18,84,71,60,57,55,52,81,55,36,30.13,30.06,29.98,10,10,10,17,7,22,0.00,1,,188
2013-8-19,88,78,68,66,62,56,70,61,46,30.00,29.93,29.88,10,10,10,14,8,,0.00,2,,188
2013-8-20,91,80,70,71,67,64,81,66,51,29.89,29.86,29.83,10,10,8,16,8,21,0.00,1,,173
2013-8-21,88,80,73,73,69,59,85,68,44,29.98,29.88,29.81,10,8,6,9,7,,0.00,2,,260
2013-8-22,87,76,63,59,50,45,70,45,25,30.12,30.08,30.02,10,10,10,12,5,18,0.00,1,,29
2013-8-23,88,72,57,65,56,47,74,55,37,30.14,30.08,30.01,10,10,10,15,5,21,0.00,0,,150
2013-8-24,91,81,71,70,67,63,76,63,46,30.05,29.98,29.91,10,10,10,22,13,31,0.00,0,,165
2013-8-25,97,88,79,73,71,69,72,59,44,29.97,29.94,29.90,10,10,9,17,13,25,0.00,0,,197
2013-8-26,96,88,79,74,72,71,79,63,46,29.96,29.89,29.81,10,10,7,18,9,24,0.00,0,,196
2013-8-27,93,86,75,75,73,70,84,67,52,29.90,29.81,29.76,10,10,10,10,6,,0.00,2,,45
2013-8-28,91,78,66,70,67,61,100,75,38,29.99,29.95,29.90,10,7,0,7,1,,0.00,0,Fog,116
2013-8-29,95,83,73,74,70,61,94,71,33,29.98,29.92,29.81,10,9,5,13,5,21,0.04,2,Rain-Thunderstorm,159
2013-8-30,84,78,70,70,64,61,84,66,47,29.92,29.86,29.79,10,10,10,14,8,21,0.00,3,,19
2013-8-31,89,76,63,66,63,60,90,68,46,29.89,29.81,29.68,10,10,4,23,4,33,0.16,1,Rain,175